Location: ?????
(33.0144°N, 35.8248°E)
Time: 01:20:09
(UTC+00:00)

Daily predictions for brighter satellites

Satellite Brightness Start Highest point End
(mag) Time Altitude Azimuth Time Altitude Azimuth Time Altitude Azimuth
ARIANE 5 R/B 2.9 00:00:24 10° NNE 00:05:21 54° E 00:06:34 43° SSE
CZ-4C R/B 1.7 00:05:33 78° WSW 00:05:49 82° WNW 00:11:17 10° NNE
NPP 4.5 00:01:32 10° N 00:06:23 35° WNW 00:06:26 35° WNW
Cosmos 1656 4.1 00:06:54 45° W 00:07:24 46° WNW 00:12:50 10° N
ATLAS CENTAUR R/B 3.9 00:07:23 10° NNW 00:11:09 44° NE 00:20:12 10° SE
Cosmos 468 Rocket 4.4 00:12:13 45° WNW 00:12:22 45° WNW 00:17:17 10° N
Cosmos 1898 Rocket 3.9 00:07:46 10° N 00:13:04 63° ENE 00:16:56 18° SSE
Cosmos 1570 Rocket 3.9 00:12:35 60° S 00:13:35 87° ESE 00:18:55 10° NNE
Cosmos 2369 3.6 00:13:58 58° SW 00:15:07 82° WNW 00:20:47 10° NNE
Cosmos 2208 Rocket 4.0 00:15:11 53° S 00:16:24 76° ESE 00:21:39 10° NNE
Cosmos 1953 Rocket 3.4 00:17:27 76° WSW 00:17:37 77° W 00:22:05 10° N
Cosmos 1709 Rocket 4.5 00:17:08 38° W 00:17:48 39° W 00:23:29 10° N
Cosmos 2360 4.2 00:16:23 48° S 00:17:59 78° ESE 00:23:42 10° NNE
IDEFIX/ARIANE 42P 3.9 00:13:30 10° NNE 00:18:18 35° E 00:21:39 18° SSE
STARLINK-1235 4.4 00:16:51 10° NNW 00:19:45 36° NE 00:22:38 10° ESE
SJ 16-02 1.2 00:17:21 10° NNW 00:21:48 84° WSW 00:22:21 67° S
Cosmos 1937 Rocket 4.1 00:18:16 10° N 00:23:26 55° ENE 00:28:34 10° SSE
Meteor 2-10 Rocket 3.6 00:19:29 10° NNW 00:24:33 51° W 00:24:55 50° WSW
Cosmos 1814 Rocket 3.9 00:30:51 44° SSW 00:32:38 85° WNW 00:38:00 10° NNE
STARLINK 1040 4.3 00:34:59 29° ENE 00:34:59 29° ENE 00:36:32 10° NE
Cosmos 1980 Rocket 2.2 00:31:54 37° S 00:34:11 80° ESE 00:39:49 10° NNE
Cosmos 2219 3.4 00:33:35 10° NW 00:38:57 46° WSW 00:40:26 37° SW
Cosmos 858 Rocket 4.5 00:38:46 10° NNW 00:44:04 89° E 00:49:21 10° SSE
STARLINK-43 3.2 00:45:27 62° SW 00:46:01 90° WSW 00:49:42 10° NE
ERS-2 2.1 00:44:32 32° SSE 00:46:08 84° ENE 00:49:48 10° NNW
CSL-04 DEB 4.4 00:47:39 33° S 00:49:25 67° WSW 00:53:41 10° NNW
Cosmos 540 Rocket 3.9 00:52:32 32° WSW 00:54:23 46° WNW 00:59:20 10° N
Cosmos 2297 Rocket 2.5 00:49:18 10° NW 00:54:36 42° WSW 00:57:34 23° SSW
SL-16 R/B 4.1 00:56:01 16° W 00:56:01 16° W 00:59:08 10° WNW
Cosmos 2278 4.0 00:54:13 30° SW 00:56:45 51° WNW 01:02:15 10° N
Cosmos 2082 3.6 00:52:41 10° NNW 00:58:21 87° WSW 01:03:57 10° SSE
Cosmos 489 Rocket 4.5 00:55:21 26° SSW 00:58:57 68° WNW 01:05:10 10° N
Cosmos 2074 Rocket 4.3 00:55:43 27° SW 00:58:59 50° W 01:05:07 10° N
USA 234 3.2 00:52:54 10° NE 00:59:26 81° NW 01:03:45 23° SW
Landsat 5 4.0 00:56:33 10° SSE 01:00:57 66° ENE 01:05:26 10° N
Cosmos 990 Rocket 4.5 00:57:15 10° NNW 01:02:06 39° W 01:04:44 23° SSW
IRIDIUM 106 4.3 00:59:36 15° S 01:04:00 88° W 01:09:15 10° N
STARLINK-55 3.6 01:03:02 32° S 01:04:02 44° SE 01:07:07 10° ENE
Cosmos 2322 Rocket 3.8 01:00:01 10° SSE 01:04:52 30° ESE 01:09:42 10° NE
Meteor 1-28 Rocket 3.3 01:03:57 28° SSW 01:05:37 51° W 01:09:19 10° NNW
Cosmos 841 Rocket 4.4 01:04:22 24° WSW 01:06:28 33° WNW 01:11:11 10° N
BREEZE-M DEB (TANK) 4.4 01:05:39 19° W 01:08:57 52° NNW 01:24:38 10° NE
CZ-2D R/B 4.1 01:05:23 10° N 01:09:14 39° WNW 01:11:01 26° WSW
Cosmos 2184 Rocket 4.5 01:07:06 23° SW 01:10:30 41° W 01:16:18 10° N
COBE Rocket 4.1 01:07:28 17° SSW 01:11:00 50° W 01:15:50 10° NNW
In-Cosmos 22 Rocket 4.4 01:06:35 10° S 01:12:21 77° E 01:18:01 10° NNE
STARLINK-1313 4.2 01:12:09 20° S 01:13:38 31° SE 01:16:27 10° ENE
NOSS 2-1 (C) 4.3 01:11:10 14° S 01:13:49 34° ESE 01:16:55 10° NE
Cosmos 372 Rocket 4.3 01:08:51 10° NNW 01:13:58 70° ENE 01:19:05 10° SSE
STARLINK-28 3.0 01:12:40 31° SSW 01:13:59 69° SE 01:17:10 10° NE
ATLAS 3B R/B 4.4 01:10:56 10° WNW 01:12:42 13° W 01:12:42 13° W
STARLINK-1279 4.2 01:13:00 20° S 01:14:31 32° SE 01:17:21 10° ENE
STARLINK-1272 4.5 01:13:08 17° S 01:14:52 29° SE 01:17:43 10° ENE
Cosmos 1892 2.9 01:11:38 12° S 01:15:06 70° E 01:18:55 10° NNE
STARLINK-1298 4.4 01:13:36 18° S 01:15:14 28° SE 01:17:57 10° ENE
STARLINK-1293 4.4 01:14:26 18° S 01:16:06 28° SE 01:18:50 10° ENE
STARLINK-1207 4.4 01:14:27 17° S 01:16:15 30° SE 01:19:07 10° ENE
SL-08 R/B 4.2 01:15:14 22° SW 01:17:05 29° W 01:21:08 10° NW
STARLINK-1311 4.0 01:15:39 20° S 01:17:07 33° SE 01:19:51 10° ENE
STARLINK-1266 4.4 01:15:51 17° S 01:17:42 31° SE 01:20:36 10° ENE
STARLINK-1255 4.3 01:16:11 18° S 01:17:54 30° SE 01:20:41 10° ENE
NOSS 2-1 (D) 4.0 01:15:32 14° S 01:18:15 40° ESE 01:21:27 10° NE
COSMOS 2441 4.4 01:13:36 10° NNE 01:18:32 83° ESE 01:23:26 10° S
STARLINK-1284 4.3 01:17:13 17° S 01:19:07 32° SE 01:22:04 10° ENE
STARLINK-1258 4.2 01:18:34 17° S 01:20:32 34° SE 01:23:30 10° ENE
STARLINK-1206 4.4 01:16:58 10° NW 01:21:02 54° NE 01:25:04 10° ESE
STARLINK-1292 4.2 01:19:59 17° S 01:21:59 35° SE 01:25:00 10° ENE
Cosmos 1869 3.3 01:18:45 10° N 01:22:38 82° E 01:26:29 10° S
Cosmos 2221 2.4 01:18:26 10° N 01:22:46 84° W 01:27:07 10° S
PSLV R/B 3.7 01:18:39 10° NNE 01:22:51 70° ESE 01:27:01 10° S
CZ-4C R/B 3.2 01:19:55 13° S 01:22:52 50° W 01:26:22 10° NNW
Cosmos 1400 Rocket 3.6 01:19:23 10° NNW 01:23:07 34° W 01:25:46 17° SSW
STARLINK-1274 4.1 01:21:25 17° S 01:23:29 37° SE 01:26:31 10° ENE
STARLINK-1289 4.0 01:22:52 17° SSW 01:24:59 38° SE 01:28:03 10° ENE
PAYLOAD A 4.2 01:20:51 10° NNE 01:25:29 62° ESE 01:30:11 10° S
STARLINK-41 3.1 01:24:02 22° SSW 01:25:52 64° SE 01:28:59 10° NE
STARLINK-1205 4.2 01:21:55 10° NW 01:26:01 60° NE 01:30:05 10° SE
Cosmos 1697 Rocket 4.4 01:23:12 13° W 01:26:12 18° WNW 01:30:04 10° NNW
STARLINK-1303 3.9 01:24:15 17° SSW 01:26:26 40° SE 01:29:33 10° ENE
STARLINK-1312 3.9 01:25:42 17° SSW 01:27:56 42° SE 01:31:02 10° ENE
Cosmos 2227 Rocket 3.3 01:25:35 10° NW 01:29:58 23° W 01:33:58 11° SSW
STARLINK-33 2.9 01:28:58 21° SW 01:30:58 86° NW 01:34:10 10° NE
STARLINK-1218 4.0 01:26:51 10° NW 01:30:59 68° NE 01:35:05 10° SE
SL-16 R/B 2.5 01:25:52 10° S 01:31:27 68° ESE 01:37:06 10° NNE
ADEOS II 4.1 01:29:47 10° NW 01:31:41 12° WNW 01:33:35 10° W
Cosmos 2150 Rocket 4.0 01:30:16 10° NNW 01:35:28 84° ENE 01:40:36 10° SSE
Cosmos 2151 4.0 01:31:47 10° SSE 01:35:50 47° E 01:39:56 10° NNE
STARLINK-1254 3.8 01:31:50 10° NW 01:35:58 76° NE 01:40:06 10° SE
MSX 4.0 01:32:23 10° N 01:38:02 58° WNW 01:43:38 10° SSW
STARLINK-66 3.0 01:37:08 17° SW 01:39:28 64° NW 01:42:38 10° NE
H-2A R/B 2.9 01:36:09 10° SSW 01:39:51 29° W 01:43:39 10° NW
STARLINK-1231 3.7 01:36:49 10° NW 01:40:58 85° NE 01:45:06 10° SE
SAR-Lupe-4 3.5 01:38:47 10° S 01:42:21 73° WSW 01:45:56 10° NNW
Cosmos 1315 Rocket 2.7 01:39:15 10° NNW 01:43:07 61° W 01:46:58 10° S
STARLINK-1234 4.5 01:41:25 10° W 01:43:24 16° SW 01:45:22 10° SSW
ARIANE 5 R/B 4.4 01:41:19 10° NNW 01:43:55 14° WNW 01:46:31 10° W
CZ-2C R/B 4.2 01:41:29 10° NNW 01:44:17 21° WNW 01:46:42 12° WSW
STARLINK-1212 4.0 01:42:19 10° WNW 01:44:49 22° SW 01:47:19 10° S
Skynet4D Del rocket 4.1 01:40:30 13° WSW 01:45:09 42° S 01:50:10 10° ESE
STARLINK-1105 4.0 01:42:48 10° WNW 01:45:17 22° SW 01:47:44 10° S
STARLINK-1232 3.6 01:41:48 10° NW 01:45:56 86° SW 01:50:04 10° SE
STARLINK-1247 4.1 01:43:44 10° WNW 01:46:13 22° SW 01:48:41 10° S
STARLINK-1227 4.1 01:44:13 10° WNW 01:46:38 21° SW 01:49:04 10° S
SL-8 Rocket 4.1 01:40:41 10° S 01:47:00 89° W 01:53:20 10° N
STARLINK-1226 4.1 01:45:05 10° WNW 01:47:31 21° SW 01:49:56 10° S
STARLINK-1215 4.2 01:46:03 10° WNW 01:48:27 20° SW 01:50:51 10° S
deb Chang Zheng 4 3.9 01:44:41 10° N 01:48:49 46° WNW 01:52:54 10° SSW
STARLINK-1217 4.2 01:47:53 10° WNW 01:50:13 19° SW 01:52:32 10° S
STARLINK-75 3.2 01:47:43 12° WSW 01:50:33 56° NW 01:53:43 10° NE
STARLINK-1208 3.5 01:46:45 10° NW 01:50:54 77° SW 01:55:00 10° SE
STARLINK-1229 4.3 01:48:49 10° W 01:51:08 19° SW 01:53:26 10° S
STARLINK-1270 4.3 01:49:43 10° W 01:51:59 19° SW 01:54:15 10° S
Cosmos 2058 3.7 01:48:54 10° SW 01:52:39 33° W 01:56:27 10° NNW
STARLINK-1189 4.4 01:51:38 10° W 01:53:48 18° SW 01:56:00 10° S
STARLINK-1188 4.4 01:52:32 10° W 01:54:41 17° SW 01:56:51 10° S
CZ-4C R/B 4.3 01:53:49 10° NW 01:55:26 11° NW 01:57:08 10° NNW
STARLINK-1271 3.6 01:51:46 10° NW 01:55:52 68° SW 01:59:58 10° SE
Cosmos 2298 Rocket 4.2 01:51:53 10° NNW 01:57:02 53° WSW 02:02:09 10° S
STARLINK-1191 4.5 01:55:07 10° W 01:57:08 16° SW 01:59:08 10° SSW
Lacrosse 4 Rocket 1.8 01:53:12 10° NW 01:57:11 40° WSW 02:01:04 10° S
IDEFIX/ARIANE 42P 3.9 01:53:32 10° NNW 01:57:38 23° WNW 02:01:42 10° WSW
SAR-Lupe-1 4.3 01:54:57 10° S 01:58:21 46° W 02:01:46 10° NNW
STARLINK-1301 3.2 01:56:04 10° SW 01:59:24 63° NW 02:02:44 10° NE
STARLINK-1307 3.1 01:57:08 10° SW 02:00:29 73° NW 02:03:50 10° NE
STARLINK-22 3.2 01:57:30 10° SW 02:00:39 59° NW 02:03:48 10° NE
STARLINK-1154 3.6 01:56:46 10° NW 02:00:51 60° SW 02:04:54 10° SSE
Shenzhou-11 Module 3.6 01:59:38 10° SSW 02:01:32 20° SE 02:03:26 10° E
OFEQ 5 4.4 01:59:35 10° ENE 02:02:15 88° NNW 02:04:53 10° WSW
STARLINK-58 3.0 01:59:09 10° SW 02:02:19 77° SE 02:05:28 10° NE
STARLINK-1290 3.2 01:59:24 10° SW 02:02:45 68° NW 02:06:06 10° NE
STARLINK-80 3.7 02:00:18 10° WSW 02:04:02 54° NW 02:07:45 10° NE
STARLINK-1297 3.2 02:01:31 10° SW 02:04:51 64° NW 02:08:13 10° NE
STARLINK-1197 3.7 02:01:46 10° NW 02:05:48 53° SW 02:09:49 10° SSE
